Time,TemperatureF,DewpointF,PressureIn,WindDirection,WindDirectionDegrees,WindSpeedMPH,WindSpeedGustMPH,Humidity,HourlyPrecipIn,Conditions,Clouds,dailyrainin,SoftwareType,DateUTC
2013-09-03 00:02:00,65.4,58.0,29.99,North,11,1.0,1.0,77,0.00,,CLR,0.00,VWS V14.01,2013-09-03 05:02:00,
2013-09-03 00:07:00,65.2,57.8,29.99,North,11,1.0,2.0,77,0.00,,CLR,0.00,VWS V14.01,2013-09-03 05:07:00,
2013-09-03 00:12:00,65.0,58.0,29.99,North,11,1.0,2.0,78,0.00,,CLR,0.00,VWS V14.01,2013-09-03 05:12:00,
2013-09-03 00:17:00,64.8,57.8,29.99,North,11,0.0,1.0,78,0.00,,CLR,0.00,VWS V14.01,2013-09-03 05:17:00,
2013-09-03 00:22:00,64.5,57.5,29.99,North,11,0.0,0.0,78,0.00,,CLR,0.00,VWS V14.01,2013-09-03 05:22:00,
2013-09-03 00:27:00,64.3,57.7,29.99,North,11,1.0,2.0,79,0.00,,CLR,0.00,VWS V14.01,2013-09-03 05:27:00,
2013-09-03 00:32:00,64.2,57.6,29.99,North,11,0.0,1.0,79,0.00,,CLR,0.00,VWS V14.01,2013-09-03 05:32:00,
2013-09-03 00:37:00,64.0,57.4,29.99,North,11,0.0,1.0,79,0.00,,CLR,0.00,VWS V14.01,2013-09-03 05:37:00,
2013-09-03 00:42:00,63.7,57.4,29.99,North,11,1.0,2.0,80,0.00,,CLR,0.00,VWS V14.01,2013-09-03 05:42:00,
2013-09-03 00:47:00,63.7,57.4,29.99,North,11,2.0,3.0,80,0.00,,CLR,0.00,VWS V14.01,2013-09-03 05:47:00,
2013-09-03 00:52:00,63.6,57.3,29.99,North,11,0.0,1.0,80,0.00,,CLR,0.00,VWS V14.01,2013-09-03 05:52:00,
2013-09-03 00:57:00,63.5,57.2,29.99,North,11,0.0,0.0,80,0.00,,CLR,0.00,VWS V14.01,2013-09-03 05:57:00,
2013-09-03 01:02:00,63.2,56.9,29.99,North,11,0.0,0.0,80,0.00,,CLR,0.00,VWS V14.01,2013-09-03 06:02:00,
2013-09-03 01:07:00,62.9,57.0,29.99,North,11,0.0,0.0,81,0.00,,CLR,0.00,VWS V14.01,2013-09-03 06:07:00,
2013-09-03 01:12:00,62.4,56.8,29.99,North,11,0.0,0.0,82,0.00,,CLR,0.00,VWS V14.01,2013-09-03 06:12:00,
2013-09-03 01:17:00,62.1,56.5,29.99,North,11,0.0,0.0,82,0.00,,CLR,0.00,VWS V14.01,2013-09-03 06:17:00,
2013-09-03 01:22:00,61.7,56.5,29.99,North,11,0.0,0.0,83,0.00,,CLR,0.00,VWS V14.01,2013-09-03 06:22:00,
2013-09-03 01:27:00,61.4,56.5,29.99,North,11,0.0,0.0,84,0.00,,CLR,0.00,VWS V14.01,2013-09-03 06:27:00,
2013-09-03 01:32:00,61.1,56.6,29.99,North,11,0.0,0.0,85,0.00,,CLR,0.00,VWS V14.01,2013-09-03 06:32:00,
2013-09-03 01:38:00,60.8,56.6,30.00,North,11,0.0,0.0,86,0.00,,CLR,0.00,VWS V14.01,2013-09-03 06:38:00,
2013-09-03 01:43:00,60.6,56.4,29.99,North,11,0.0,0.0,86,0.00,,CLR,0.00,VWS V14.01,2013-09-03 06:43:00,
2013-09-03 01:48:00,60.4,56.5,30.00,North,11,0.0,0.0,87,0.00,,CLR,0.00,VWS V14.01,2013-09-03 06:48:00,
2013-09-03 01:53:00,60.3,56.4,30.00,North,11,0.0,0.0,87,0.00,,CLR,0.00,VWS V14.01,2013-09-03 06:53:00,
2013-09-03 01:58:00,60.2,56.3,30.00,North,11,0.0,0.0,87,0.00,,CLR,0.00,VWS V14.01,2013-09-03 06:58:00,
2013-09-03 02:03:00,60.2,56.6,30.00,North,11,0.0,0.0,88,0.00,,CLR,0.00,VWS V14.01,2013-09-03 07:03:00,
2013-09-03 02:08:00,60.2,56.6,30.00,North,11,0.0,0.0,88,0.00,,CLR,0.00,VWS V14.01,2013-09-03 07:08:00,
2013-09-03 02:13:00,60.2,56.6,30.00,North,11,0.0,0.0,88,0.00,,CLR,0.00,VWS V14.01,2013-09-03 07:13:00,
2013-09-03 02:18:00,60.2,56.6,30.00,North,11,0.0,0.0,88,0.00,,CLR,0.00,VWS V14.01,2013-09-03 07:18:00,
2013-09-03 02:23:00,60.2,57.0,30.00,North,11,0.0,1.0,89,0.00,,CLR,0.00,VWS V14.01,2013-09-03 07:23:00,
2013-09-03 02:28:00,60.1,56.8,30.00,North,11,0.0,0.0,89,0.00,,CLR,0.00,VWS V14.01,2013-09-03 07:28:00,
2013-09-03 02:33:00,60.1,56.8,30.00,North,11,0.0,0.0,89,0.00,,CLR,0.00,VWS V14.01,2013-09-03 07:33:00,
2013-09-03 02:38:00,60.2,57.0,30.00,North,11,0.0,0.0,89,0.00,,CLR,0.00,VWS V14.01,2013-09-03 07:38:00,
2013-09-03 02:43:00,60.2,57.0,30.00,North,11,0.0,0.0,89,0.00,,CLR,0.00,VWS V14.01,2013-09-03 07:43:00,
2013-09-03 02:48:00,60.3,57.0,30.00,North,11,0.0,0.0,89,0.00,,CLR,0.00,VWS V14.01,2013-09-03 07:48:00,
2013-09-03 02:53:00,60.3,57.0,30.00,North,11,0.0,1.0,89,0.00,,CLR,0.00,VWS V14.01,2013-09-03 07:53:00,
2013-09-03 02:58:00,60.2,57.0,30.00,North,11,0.0,0.0,89,0.00,,CLR,0.00,VWS V14.01,2013-09-03 07:58:00,
2013-09-03 03:03:00,60.1,56.8,30.00,North,11,0.0,0.0,89,0.00,,CLR,0.00,VWS V14.01,2013-09-03 08:03:00,
2013-09-03 03:08:00,59.9,57.0,30.00,North,11,0.0,0.0,90,0.00,,CLR,0.00,VWS V14.01,2013-09-03 08:08:00,
2013-09-03 03:13:00,59.9,57.0,30.01,North,11,0.0,0.0,90,0.00,,CLR,0.00,VWS V14.01,2013-09-03 08:13:00,
2013-09-03 03:18:00,59.9,57.0,30.01,North,11,0.0,0.0,90,0.00,,CLR,0.00,VWS V14.01,2013-09-03 08:18:00,
2013-09-03 03:23:00,59.9,57.0,30.01,North,11,0.0,0.0,90,0.00,,CLR,0.00,VWS V14.01,2013-09-03 08:23:00,
2013-09-03 03:28:00,59.8,56.9,30.01,North,11,0.0,0.0,90,0.00,,CLR,0.00,VWS V14.01,2013-09-03 08:28:00,
2013-09-03 03:33:00,59.7,56.8,30.01,North,11,0.0,0.0,90,0.00,,CLR,0.00,VWS V14.01,2013-09-03 08:33:00,
2013-09-03 03:38:00,59.7,56.8,30.01,North,11,0.0,0.0,90,0.00,,CLR,0.00,VWS V14.01,2013-09-03 08:38:00,
2013-09-03 03:43:00,59.6,56.7,30.01,North,11,0.0,0.0,90,0.00,,CLR,0.00,VWS V14.01,2013-09-03 08:43:00,
2013-09-03 03:48:00,59.3,56.4,30.01,North,11,0.0,0.0,90,0.00,,CLR,0.00,VWS V14.01,2013-09-03 08:48:00,
2013-09-03 03:53:00,59.1,56.2,30.01,North,11,0.0,0.0,90,0.00,,CLR,0.00,VWS V14.01,2013-09-03 08:53:00,
2013-09-03 03:58:00,58.9,56.3,30.01,North,11,0.0,0.0,91,0.00,,CLR,0.00,VWS V14.01,2013-09-03 08:58:00,
2013-09-03 04:03:00,58.7,56.1,30.01,North,11,0.0,0.0,91,0.00,,CLR,0.00,VWS V14.01,2013-09-03 09:03:00,
2013-09-03 04:08:00,58.5,55.9,30.01,North,11,0.0,0.0,91,0.00,,CLR,0.00,VWS V14.01,2013-09-03 09:08:00,
2013-09-03 04:13:00,58.3,55.7,30.01,North,11,0.0,0.0,91,0.00,,CLR,0.00,VWS V14.01,2013-09-03 09:13:00,
2013-09-03 04:18:00,58.1,55.5,30.01,North,11,0.0,0.0,91,0.00,,CLR,0.00,VWS V14.01,2013-09-03 09:18:00,
2013-09-03 04:23:00,57.9,55.6,30.01,North,11,0.0,0.0,92,0.00,,CLR,0.00,VWS V14.01,2013-09-03 09:23:00,
2013-09-03 04:28:00,58.0,55.7,30.01,North,11,0.0,2.0,92,0.00,,CLR,0.00,VWS V14.01,2013-09-03 09:28:00,
2013-09-03 04:33:00,58.1,56.1,30.01,North,11,1.0,1.0,93,0.00,,CLR,0.00,VWS V14.01,2013-09-03 09:33:00,
2013-09-03 04:39:00,58.2,56.2,30.01,North,11,0.0,1.0,93,0.00,,CLR,0.00,VWS V14.01,2013-09-03 09:39:00,
2013-09-03 04:44:00,58.2,56.2,30.01,North,11,0.0,0.0,93,0.00,,,0.00,VWS V14.01,2013-09-03 09:44:00,
2013-09-03 04:49:00,58.1,56.1,30.01,North,11,0.0,0.0,93,0.00,,,0.00,VWS V14.01,2013-09-03 09:49:00,
2013-09-03 04:54:00,58.0,55.7,30.01,North,11,0.0,0.0,92,0.00,,,0.00,VWS V14.01,2013-09-03 09:54:00,
2013-09-03 04:59:00,57.8,55.8,30.01,North,11,0.0,0.0,93,0.00,,,0.00,VWS V14.01,2013-09-03 09:59:00,
2013-09-03 05:04:00,57.6,55.6,30.01,North,11,0.0,0.0,93,0.00,,,0.00,VWS V14.01,2013-09-03 10:04:00,
2013-09-03 05:09:00,57.5,55.5,30.01,North,11,0.0,0.0,93,0.00,,,0.00,VWS V14.01,2013-09-03 10:09:00,
2013-09-03 05:14:00,57.3,55.3,30.01,North,11,0.0,1.0,93,0.00,,,0.00,VWS V14.01,2013-09-03 10:14:00,
2013-09-03 05:19:00,57.2,55.2,30.01,North,11,2.0,2.0,93,0.00,,,0.00,VWS V14.01,2013-09-03 10:19:00,
2013-09-03 05:24:00,57.0,55.0,30.01,North,11,1.0,2.0,93,0.00,,,0.00,VWS V14.01,2013-09-03 10:24:00,
2013-09-03 05:29:00,56.9,54.9,30.02,North,11,1.0,2.0,93,0.00,,,0.00,VWS V14.01,2013-09-03 10:29:00,
2013-09-03 05:34:00,56.7,54.7,30.02,North,11,2.0,3.0,93,0.00,,,0.00,VWS V14.01,2013-09-03 10:34:00,
2013-09-03 05:39:00,56.5,54.5,30.02,North,11,1.0,2.0,93,0.00,,,0.00,VWS V14.01,2013-09-03 10:39:00,
2013-09-03 05:44:00,56.3,54.3,30.02,North,11,1.0,1.0,93,0.00,,,0.00,VWS V14.01,2013-09-03 10:44:00,
2013-09-03 05:49:00,56.0,54.3,30.02,North,11,0.0,1.0,94,0.00,,,0.00,VWS V14.01,2013-09-03 10:49:00,
2013-09-03 05:54:00,55.8,53.8,30.02,North,11,0.0,1.0,93,0.00,,,0.00,VWS V14.01,2013-09-03 10:54:00,
2013-09-03 05:59:00,55.6,53.9,30.02,North,11,0.0,0.0,94,0.00,,,0.00,VWS V14.01,2013-09-03 10:59:00,
2013-09-03 06:04:00,55.3,53.6,30.02,North,11,1.0,2.0,94,0.00,,,0.00,VWS V14.01,2013-09-03 11:04:00,
2013-09-03 06:09:00,55.2,53.5,30.02,North,11,0.0,0.0,94,0.00,,,0.00,VWS V14.01,2013-09-03 11:09:00,
2013-09-03 06:14:00,55.1,53.4,30.03,North,11,1.0,1.0,94,0.00,,,0.00,VWS V14.01,2013-09-03 11:14:00,
2013-09-03 06:19:00,55.1,53.4,30.03,North,11,0.0,0.0,94,0.00,,,0.00,VWS V14.01,2013-09-03 11:19:00,
2013-09-03 06:24:00,55.1,53.4,30.03,North,11,0.0,0.0,94,0.00,,,0.00,VWS V14.01,2013-09-03 11:24:00,
2013-09-03 06:29:00,55.0,53.3,30.03,North,11,0.0,1.0,94,0.00,,,0.00,VWS V14.01,2013-09-03 11:29:00,
2013-09-03 06:34:00,54.9,53.2,30.03,North,11,0.0,0.0,94,0.00,,,0.00,VWS V14.01,2013-09-03 11:34:00,
2013-09-03 06:39:00,54.8,53.1,30.04,North,11,0.0,0.0,94,0.00,,,0.00,VWS V14.01,2013-09-03 11:39:00,
2013-09-03 06:44:00,54.8,53.1,30.04,North,11,0.0,0.0,94,0.00,,,0.00,VWS V14.01,2013-09-03 11:44:00,
2013-09-03 06:49:00,54.7,53.0,30.04,North,11,0.0,0.0,94,0.00,,,0.00,VWS V14.01,2013-09-03 11:49:00,
2013-09-03 06:54:00,54.6,52.9,30.04,North,11,0.0,0.0,94,0.00,,,0.00,VWS V14.01,2013-09-03 11:54:00,
2013-09-03 06:59:00,54.5,53.1,30.04,North,11,0.0,0.0,95,0.00,,,0.00,VWS V14.01,2013-09-03 11:59:00,
2013-09-03 07:04:00,54.5,53.1,30.04,North,11,0.0,0.0,95,0.00,,,0.00,VWS V14.01,2013-09-03 12:04:00,
2013-09-03 07:09:00,54.5,53.1,30.04,North,11,0.0,0.0,95,0.00,,,0.00,VWS V14.01,2013-09-03 12:09:00,
2013-09-03 07:14:00,54.6,53.2,30.04,North,11,0.0,0.0,95,0.00,,,0.00,VWS V14.01,2013-09-03 12:14:00,
2013-09-03 07:19:00,54.7,53.3,30.05,North,11,0.0,0.0,95,0.00,,,0.00,VWS V14.01,2013-09-03 12:19:00,
2013-09-03 07:24:00,54.8,53.4,30.05,North,11,0.0,1.0,95,0.00,,,0.00,VWS V14.01,2013-09-03 12:24:00,
2013-09-03 07:29:00,55.0,53.6,30.05,North,11,0.0,0.0,95,0.00,,,0.00,VWS V14.01,2013-09-03 12:29:00,
2013-09-03 07:34:00,55.4,54.3,30.05,North,11,1.0,1.0,96,0.00,,,0.00,VWS V14.01,2013-09-03 12:34:00,
2013-09-03 07:39:00,55.7,54.3,30.05,North,11,0.0,0.0,95,0.00,,,0.00,VWS V14.01,2013-09-03 12:39:00,
2013-09-03 07:44:00,56.1,55.0,30.05,North,11,0.0,0.0,96,0.00,,,0.00,VWS V14.01,2013-09-03 12:44:00,
2013-09-03 07:49:00,56.5,55.4,30.05,North,11,0.0,0.0,96,0.00,,,0.00,VWS V14.01,2013-09-03 12:49:00,
2013-09-03 07:54:00,56.8,55.7,30.05,North,11,0.0,0.0,96,0.00,,,0.00,VWS V14.01,2013-09-03 12:54:00,
2013-09-03 07:59:00,57.2,56.1,30.06,North,11,1.0,2.0,96,0.00,,,0.00,VWS V14.01,2013-09-03 12:59:00,
2013-09-03 08:04:00,57.5,56.1,30.06,NE,56,2.0,2.0,95,0.00,,,0.00,VWS V14.01,2013-09-03 13:04:00,
2013-09-03 08:09:00,57.7,56.0,30.06,NE,56,0.0,2.0,94,0.00,,,0.00,VWS V14.01,2013-09-03 13:09:00,
2013-09-03 08:14:00,58.1,56.4,30.06,NE,56,1.0,1.0,94,0.00,,,0.00,VWS V14.01,2013-09-03 13:14:00,
2013-09-03 08:19:00,58.7,56.7,30.06,NE,56,0.0,2.0,93,0.00,,,0.00,VWS V14.01,2013-09-03 13:19:00,
2013-09-03 08:24:00,59.0,56.7,30.06,ENE,70,1.0,3.0,92,0.00,,,0.00,VWS V14.01,2013-09-03 13:24:00,
2013-09-03 08:30:00,59.0,56.4,30.06,ENE,70,2.0,2.0,91,0.00,,,0.00,VWS V14.01,2013-09-03 13:30:00,
2013-09-03 08:35:00,59.3,56.4,30.06,ENE,71,1.0,1.0,90,0.00,,,0.00,VWS V14.01,2013-09-03 13:35:00,
2013-09-03 08:40:00,59.8,56.6,30.06,SSE,154,3.0,3.0,89,0.00,,,0.00,VWS V14.01,2013-09-03 13:40:00,
2013-09-03 08:45:00,60.0,56.4,30.06,SSE,154,3.0,3.0,88,0.00,,CLR,0.00,VWS V14.01,2013-09-03 13:45:00,
2013-09-03 08:50:00,60.3,56.4,30.06,SE,132,1.0,3.0,87,0.00,,CLR,0.00,VWS V14.01,2013-09-03 13:50:00,
2013-09-03 08:55:00,60.6,56.4,30.06,SE,131,0.0,3.0,86,0.00,,CLR,0.00,VWS V14.01,2013-09-03 13:55:00,
2013-09-03 09:00:00,61.0,57.1,30.06,SSE,149,0.0,1.0,87,0.00,,CLR,0.00,VWS V14.01,2013-09-03 14:00:00,
2013-09-03 09:05:00,61.4,56.5,30.07,SE,139,2.0,4.0,84,0.00,,CLR,0.00,VWS V14.01,2013-09-03 14:05:00,
2013-09-03 09:10:00,61.6,56.7,30.07,SSE,166,0.0,2.0,84,0.00,,CLR,0.00,VWS V14.01,2013-09-03 14:10:00,
2013-09-03 09:15:00,62.2,57.0,30.06,SE,143,3.0,4.0,83,0.00,,CLR,0.00,VWS V14.01,2013-09-03 14:15:00,
2013-09-03 09:20:00,62.3,57.1,30.06,SE,142,1.0,4.0,83,0.00,,CLR,0.00,VWS V14.01,2013-09-03 14:20:00,
2013-09-03 09:25:00,62.9,57.7,30.06,SSE,166,2.0,4.0,83,0.00,,CLR,0.00,VWS V14.01,2013-09-03 14:25:00,
2013-09-03 09:30:00,63.3,58.1,30.07,SSE,152,0.0,2.0,83,0.00,,CLR,0.00,VWS V14.01,2013-09-03 14:30:00,
2013-09-03 09:35:00,63.9,58.3,30.07,SSE,150,2.0,4.0,82,0.00,,CLR,0.00,VWS V14.01,2013-09-03 14:35:00,
2013-09-03 09:40:00,64.4,58.8,30.07,SSE,149,4.0,4.0,82,0.00,,CLR,0.00,VWS V14.01,2013-09-03 14:40:00,
2013-09-03 09:45:00,65.1,59.1,30.07,SSE,147,4.0,4.0,81,0.00,,CLR,0.00,VWS V14.01,2013-09-03 14:45:00,
2013-09-03 09:50:00,65.7,59.7,30.07,SSW,192,5.0,5.0,81,0.00,,CLR,0.00,VWS V14.01,2013-09-03 14:50:00,
2013-09-03 09:55:00,66.1,58.3,30.07,SSE,154,6.0,6.0,76,0.00,,CLR,0.00,VWS V14.01,2013-09-03 14:55:00,
2013-09-03 10:00:00,66.5,59.1,30.07,SSE,162,5.0,6.0,77,0.00,,CLR,0.00,VWS V14.01,2013-09-03 15:00:00,
2013-09-03 10:05:00,66.8,58.6,30.07,SSE,160,5.0,6.0,75,0.00,,CLR,0.00,VWS V14.01,2013-09-03 15:05:00,
2013-09-03 10:10:00,67.1,59.7,30.07,SSE,155,4.0,5.0,77,0.00,,CLR,0.00,VWS V14.01,2013-09-03 15:10:00,
2013-09-03 10:15:00,67.7,59.9,30.07,SSE,163,4.0,6.0,76,0.00,,CLR,0.00,VWS V14.01,2013-09-03 15:15:00,
2013-09-03 10:20:00,68.0,59.4,30.07,SSE,156,3.0,7.0,74,0.00,,CLR,0.00,VWS V14.01,2013-09-03 15:20:00,
2013-09-03 10:25:00,68.7,60.1,30.07,South,174,2.0,7.0,74,0.00,,CLR,0.00,VWS V14.01,2013-09-03 15:25:00,
2013-09-03 10:30:00,69.2,59.8,30.07,SSE,152,4.0,6.0,72,0.00,,CLR,0.00,VWS V14.01,2013-09-03 15:30:00,
2013-09-03 10:35:00,69.5,60.5,30.07,SSE,168,1.0,2.0,73,0.00,,CLR,0.00,VWS V14.01,2013-09-03 15:35:00,
2013-09-03 10:40:00,70.3,60.9,30.07,SSE,162,3.0,6.0,72,0.00,,CLR,0.00,VWS V14.01,2013-09-03 15:40:00,
2013-09-03 10:45:00,70.9,59.8,30.07,WSW,238,2.0,6.0,68,0.00,,CLR,0.00,VWS V14.01,2013-09-03 15:45:00,
2013-09-03 10:50:00,71.1,59.2,30.07,SSW,193,3.0,8.0,66,0.00,,CLR,0.00,VWS V14.01,2013-09-03 15:50:00,
2013-09-03 10:55:00,71.5,59.1,30.06,South,185,5.0,8.0,65,0.00,,CLR,0.00,VWS V14.01,2013-09-03 15:55:00,
2013-09-03 11:00:00,72.0,59.6,30.06,SSE,155,4.0,7.0,65,0.00,,CLR,0.00,VWS V14.01,2013-09-03 16:00:00,
2013-09-03 11:05:00,72.6,59.7,30.06,South,174,6.0,9.0,64,0.00,,CLR,0.00,VWS V14.01,2013-09-03 16:05:00,
2013-09-03 11:10:00,73.0,60.1,30.06,SSE,152,8.0,9.0,64,0.00,,CLR,0.00,VWS V14.01,2013-09-03 16:10:00,
2013-09-03 11:15:00,73.1,59.8,30.06,South,181,5.0,7.0,63,0.00,,CLR,0.00,VWS V14.01,2013-09-03 16:15:00,
2013-09-03 11:20:00,73.6,59.3,30.06,SW,236,4.0,7.0,61,0.00,,CLR,0.00,VWS V14.01,2013-09-03 16:20:00,
2013-09-03 11:25:00,73.8,60.4,30.06,SSE,161,5.0,5.0,63,0.00,,CLR,0.00,VWS V14.01,2013-09-03 16:25:00,
2013-09-03 11:30:00,74.5,61.1,30.06,South,179,6.0,10.0,63,0.00,,CLR,0.00,VWS V14.01,2013-09-03 16:30:00,
2013-09-03 11:36:00,74.8,60.0,30.06,ESE,122,4.0,7.0,60,0.00,,CLR,0.00,VWS V14.01,2013-09-03 16:36:00,
2013-09-03 11:41:00,74.9,60.1,30.06,SSE,147,9.0,9.0,60,0.00,,CLR,0.00,VWS V14.01,2013-09-03 16:41:00,
2013-09-03 11:46:00,75.0,58.8,30.06,South,179,4.0,8.0,57,0.00,,CLR,0.00,VWS V14.01,2013-09-03 16:46:00,
2013-09-03 11:51:00,75.4,59.6,30.06,SW,216,3.0,6.0,58,0.00,,CLR,0.00,VWS V14.01,2013-09-03 16:51:00,
2013-09-03 11:56:00,75.7,59.4,30.06,SSW,206,6.0,8.0,57,0.00,,CLR,0.00,VWS V14.01,2013-09-03 16:56:00,
2013-09-03 12:01:00,75.7,57.9,30.06,SSE,154,3.0,7.0,54,0.00,,CLR,0.00,VWS V14.01,2013-09-03 17:01:00,
2013-09-03 12:06:00,76.0,58.7,30.06,SE,125,4.0,7.0,55,0.00,,CLR,0.00,VWS V14.01,2013-09-03 17:06:00,
2013-09-03 12:11:00,76.2,59.9,30.05,SSW,199,3.0,4.0,57,0.00,,CLR,0.00,VWS V14.01,2013-09-03 17:11:00,
2013-09-03 12:16:00,76.8,59.4,30.05,SSW,207,1.0,4.0,55,0.00,,CLR,0.00,VWS V14.01,2013-09-03 17:16:00,
2013-09-03 12:21:00,76.9,59.5,30.05,SSE,167,6.0,10.0,55,0.00,,CLR,0.00,VWS V14.01,2013-09-03 17:21:00,
2013-09-03 12:26:00,76.8,60.4,30.05,SSE,167,4.0,9.0,57,0.00,,CLR,0.00,VWS V14.01,2013-09-03 17:26:00,
2013-09-03 12:31:00,77.0,59.6,30.04,South,179,3.0,8.0,55,0.00,,CLR,0.00,VWS V14.01,2013-09-03 17:31:00,
2013-09-03 12:36:00,77.2,59.8,30.04,SSE,162,3.0,4.0,55,0.00,,CLR,0.00,VWS V14.01,2013-09-03 17:36:00,
2013-09-03 12:41:00,77.5,60.1,30.04,SW,231,2.0,7.0,55,0.00,,CLR,0.00,VWS V14.01,2013-09-03 17:41:00,
2013-09-03 12:46:00,77.5,59.6,30.04,South,174,0.0,4.0,54,0.00,,CLR,0.00,VWS V14.01,2013-09-03 17:46:00,
2013-09-03 12:51:00,78.0,61.0,30.04,SE,135,5.0,7.0,56,0.00,,CLR,0.00,VWS V14.01,2013-09-03 17:51:00,
2013-09-03 12:56:00,78.1,60.1,30.04,SE,139,3.0,4.0,54,0.00,,CLR,0.00,VWS V14.01,2013-09-03 17:56:00,
2013-09-03 13:01:00,78.6,61.6,30.04,South,175,3.0,5.0,56,0.00,,CLR,0.00,VWS V14.01,2013-09-03 18:01:00,
2013-09-03 13:06:00,78.8,60.8,30.04,South,174,2.0,4.0,54,0.00,,CLR,0.00,VWS V14.01,2013-09-03 18:06:00,
2013-09-03 13:11:00,78.7,60.7,30.03,SSE,164,5.0,9.0,54,0.00,,CLR,0.00,VWS V14.01,2013-09-03 18:11:00,
2013-09-03 13:16:00,78.7,61.2,30.03,SSW,207,7.0,10.0,55,0.00,,CLR,0.00,VWS V14.01,2013-09-03 18:16:00,
2013-09-03 13:21:00,79.1,61.6,30.03,South,174,5.0,7.0,55,0.00,,CLR,0.00,VWS V14.01,2013-09-03 18:21:00,
2013-09-03 13:26:00,79.2,60.6,30.03,SW,233,2.0,4.0,53,0.00,,CLR,0.00,VWS V14.01,2013-09-03 18:26:00,
2013-09-03 13:31:00,79.0,61.0,30.03,ESE,122,5.0,5.0,54,0.00,,CLR,0.00,VWS V14.01,2013-09-03 18:31:00,
2013-09-03 13:36:00,79.2,60.6,30.03,South,180,4.0,7.0,53,0.00,,CLR,0.00,VWS V14.01,2013-09-03 18:36:00,
2013-09-03 13:41:00,79.5,59.8,30.02,SSE,160,4.0,5.0,51,0.00,,CLR,0.00,VWS V14.01,2013-09-03 18:41:00,
2013-09-03 13:46:00,79.7,60.5,30.02,SSE,163,6.0,10.0,52,0.00,,CLR,0.00,VWS V14.01,2013-09-03 18:46:00,
2013-09-03 14:00:00,79.6,59.3,30.02,South,169,7.0,8.0,50,0.00,,CLR,0.00,VWS V14.01,2013-09-03 19:00:00,
2013-09-03 14:06:00,79.7,61.1,30.02,South,172,7.0,9.0,53,0.00,,CLR,0.00,VWS V14.01,2013-09-03 19:06:00,
2013-09-03 14:11:00,79.9,59.6,30.02,SSW,196,1.0,4.0,50,0.00,,CLR,0.00,VWS V14.01,2013-09-03 19:11:00,
2013-09-03 14:16:00,80.0,60.3,30.02,South,169,1.0,8.0,51,0.00,,CLR,0.00,VWS V14.01,2013-09-03 19:16:00,
2013-09-03 14:21:00,80.0,60.3,30.02,SSE,149,2.0,5.0,51,0.00,,CLR,0.00,VWS V14.01,2013-09-03 19:21:00,
2013-09-03 14:26:00,80.2,60.5,30.02,South,170,6.0,7.0,51,0.00,,CLR,0.00,VWS V14.01,2013-09-03 19:26:00,
2013-09-03 14:31:00,80.2,59.9,30.01,SSE,154,4.0,5.0,50,0.00,,CLR,0.00,VWS V14.01,2013-09-03 19:31:00,
2013-09-03 14:36:00,80.2,59.9,30.02,SE,134,3.0,8.0,50,0.00,,CLR,0.00,VWS V14.01,2013-09-03 19:36:00,
2013-09-03 14:41:00,80.3,60.0,30.01,SSE,160,4.0,4.0,50,0.00,,FEW250,0.00,VWS V14.01,2013-09-03 19:41:00,
2013-09-03 14:46:00,80.4,60.1,30.01,South,190,3.0,5.0,50,0.00,,FEW250,0.00,VWS V14.01,2013-09-03 19:46:00,
2013-09-03 14:51:00,80.5,59.6,30.01,South,191,1.0,3.0,49,0.00,,FEW250,0.00,VWS V14.01,2013-09-03 19:51:00,
2013-09-03 14:56:00,80.6,59.7,30.01,South,186,4.0,7.0,49,0.00,,FEW250,0.00,VWS V14.01,2013-09-03 19:56:00,
2013-09-03 15:01:00,80.6,59.1,30.00,SE,140,4.0,5.0,48,0.00,,FEW250,0.00,VWS V14.01,2013-09-03 20:01:00,
2013-09-03 15:06:00,80.8,60.4,30.00,SE,135,4.0,4.0,50,0.00,,FEW250,0.00,VWS V14.01,2013-09-03 20:06:00,
2013-09-03 15:11:00,80.9,58.8,30.00,ESE,120,2.0,4.0,47,0.00,,FEW250,0.00,VWS V14.01,2013-09-03 20:11:00,
2013-09-03 15:16:00,81.2,59.1,30.00,SE,145,6.0,8.0,47,0.00,,FEW250,0.00,VWS V14.01,2013-09-03 20:16:00,
2013-09-03 15:21:00,80.8,58.1,30.00,South,185,4.0,5.0,46,0.00,,FEW250,0.00,VWS V14.01,2013-09-03 20:21:00,
2013-09-03 15:26:00,80.8,58.1,30.00,South,170,3.0,7.0,46,0.00,,FEW250,0.00,VWS V14.01,2013-09-03 20:26:00,
2013-09-03 15:31:00,80.8,58.7,29.99,SSE,166,4.0,5.0,47,0.00,,FEW250,0.00,VWS V14.01,2013-09-03 20:31:00,
2013-09-03 15:36:00,81.1,60.2,30.00,South,174,4.0,6.0,49,0.00,,FEW250,0.00,VWS V14.01,2013-09-03 20:36:00,
2013-09-03 15:41:00,81.0,59.5,29.99,South,187,4.0,6.0,48,0.00,,FEW250,0.00,VWS V14.01,2013-09-03 20:41:00,
2013-09-03 15:46:00,81.1,58.4,29.99,East,87,0.0,3.0,46,0.00,,FEW250,0.00,VWS V14.01,2013-09-03 20:46:00,
2013-09-03 15:51:00,81.2,59.7,29.99,South,183,5.0,5.0,48,0.00,,FEW250,0.00,VWS V14.01,2013-09-03 20:51:00,
2013-09-03 15:56:00,81.1,59.0,29.99,WSW,241,5.0,5.0,47,0.00,,FEW250,0.00,VWS V14.01,2013-09-03 20:56:00,
2013-09-03 16:01:00,81.1,59.6,29.99,SSE,149,10.0,10.0,48,0.00,,FEW250,0.00,VWS V14.01,2013-09-03 21:01:00,
2013-09-03 16:06:00,81.1,59.0,29.99,South,182,2.0,4.0,47,0.00,,FEW250,0.00,VWS V14.01,2013-09-03 21:06:00,
2013-09-03 16:11:00,81.3,59.2,29.99,SSW,201,3.0,5.0,47,0.00,,FEW250,0.00,VWS V14.01,2013-09-03 21:11:00,
2013-09-03 16:16:00,81.3,59.2,29.99,SW,222,3.0,6.0,47,0.00,,FEW250,0.00,VWS V14.01,2013-09-03 21:16:00,
2013-09-03 16:21:00,81.5,59.9,29.99,SSE,152,6.0,6.0,48,0.00,,FEW250,0.00,VWS V14.01,2013-09-03 21:21:00,
2013-09-03 16:26:00,81.4,59.3,29.98,SE,139,6.0,9.0,47,0.00,,FEW250,0.00,VWS V14.01,2013-09-03 21:26:00,
2013-09-03 16:31:00,81.4,58.7,29.98,SE,126,2.0,5.0,46,0.00,,FEW250,0.00,VWS V14.01,2013-09-03 21:31:00,
2013-09-03 16:36:00,81.2,57.9,29.98,SW,221,2.0,6.0,45,0.00,,FEW250,0.00,VWS V14.01,2013-09-03 21:36:00,
2013-09-03 16:41:00,81.4,59.3,29.98,SW,233,3.0,5.0,47,0.00,,FEW250,0.00,VWS V14.01,2013-09-03 21:41:00,
2013-09-03 16:46:00,81.4,59.8,29.98,SSE,154,5.0,7.0,48,0.00,,FEW250,0.00,VWS V14.01,2013-09-03 21:46:00,
2013-09-03 16:51:00,81.3,58.6,29.99,South,175,2.0,5.0,46,0.00,,FEW250,0.00,VWS V14.01,2013-09-03 21:51:00,
2013-09-03 16:56:00,81.2,59.7,29.99,SSE,153,4.0,6.0,48,0.00,,FEW250,0.00,VWS V14.01,2013-09-03 21:56:00,
2013-09-03 17:01:00,81.1,60.2,29.98,SSE,164,1.0,3.0,49,0.00,,FEW250,0.00,VWS V14.01,2013-09-03 22:01:00,
2013-09-03 17:06:00,81.1,60.7,29.99,South,175,6.0,6.0,50,0.00,,FEW250,0.00,VWS V14.01,2013-09-03 22:06:00,
2013-09-03 17:11:00,80.8,59.9,29.99,South,170,4.0,7.0,49,0.00,,FEW250,0.00,VWS V14.01,2013-09-03 22:11:00,
2013-09-03 17:17:00,80.6,60.3,29.99,SSE,168,3.0,6.0,50,0.00,,FEW250,0.00,VWS V14.01,2013-09-03 22:17:00,
2013-09-03 17:22:00,80.5,60.2,29.99,SSE,166,3.0,6.0,50,0.00,,FEW250,0.00,VWS V14.01,2013-09-03 22:22:00,
2013-09-03 17:27:00,80.4,61.7,29.99,ESE,106,2.0,2.0,53,0.00,,FEW250,0.00,VWS V14.01,2013-09-03 22:27:00,
2013-09-03 17:32:00,80.4,60.1,29.99,SE,143,4.0,4.0,50,0.00,,FEW250,0.00,VWS V14.01,2013-09-03 22:32:00,
2013-09-03 17:37:00,80.3,60.5,29.99,SSE,163,2.0,4.0,51,0.00,,FEW250,0.00,VWS V14.01,2013-09-03 22:37:00,
2013-09-03 17:42:00,80.1,59.8,29.99,SE,136,3.0,7.0,50,0.00,,FEW250,0.00,VWS V14.01,2013-09-03 22:42:00,
2013-09-03 17:47:00,80.1,60.4,29.99,SSE,167,2.0,5.0,51,0.00,,FEW250,0.00,VWS V14.01,2013-09-03 22:47:00,
2013-09-03 17:52:00,80.2,59.9,29.99,SSE,162,3.0,4.0,50,0.00,,FEW250,0.00,VWS V14.01,2013-09-03 22:52:00,
2013-09-03 17:57:00,80.0,61.3,29.99,South,171,4.0,5.0,53,0.00,,FEW250,0.00,VWS V14.01,2013-09-03 22:57:00,
2013-09-03 18:02:00,79.9,60.2,29.99,South,170,1.0,5.0,51,0.00,,FEW250,0.00,VWS V14.01,2013-09-03 23:02:00,
2013-09-03 18:07:00,79.7,61.1,29.99,SSE,166,4.0,4.0,53,0.00,,FEW250,0.00,VWS V14.01,2013-09-03 23:07:00,
2013-09-03 18:12:00,79.5,61.9,29.99,SSE,150,4.0,4.0,55,0.00,,FEW250,0.00,VWS V14.01,2013-09-03 23:12:00,
2013-09-03 18:17:00,79.4,61.8,29.99,SSE,161,2.0,4.0,55,0.00,,FEW250,0.00,VWS V14.01,2013-09-03 23:17:00,
2013-09-03 18:22:00,79.2,61.7,29.99,SSE,164,3.0,5.0,55,0.00,,FEW250,0.00,VWS V14.01,2013-09-03 23:22:00,
2013-09-03 18:27:00,79.1,61.6,29.99,SSE,160,2.0,3.0,55,0.00,,FEW250,0.00,VWS V14.01,2013-09-03 23:27:00,
2013-09-03 18:32:00,79.0,62.5,29.99,SSE,158,2.0,3.0,57,0.00,,FEW250,0.00,VWS V14.01,2013-09-03 23:32:00,
2013-09-03 18:37:00,78.9,62.4,29.99,SSE,168,2.0,3.0,57,0.00,,FEW250,0.00,VWS V14.01,2013-09-03 23:37:00,
2013-09-03 18:42:00,78.8,62.3,29.99,SSE,154,2.0,2.0,57,0.00,,SCT250,0.00,VWS V14.01,2013-09-03 23:42:00,
2013-09-03 18:47:00,78.7,62.2,29.99,SSE,154,2.0,2.0,57,0.00,,SCT250,0.00,VWS V14.01,2013-09-03 23:47:00,
2013-09-03 18:52:00,78.4,62.9,29.99,SSE,154,1.0,3.0,59,0.00,,SCT250,0.00,VWS V14.01,2013-09-03 23:52:00,
2013-09-03 18:57:00,78.2,63.2,29.99,SSE,156,1.0,3.0,60,0.00,,SCT250,0.00,VWS V14.01,2013-09-03 23:57:00,
2013-09-03 19:02:00,77.9,63.8,29.98,SSE,156,2.0,3.0,62,0.00,,SCT250,0.00,VWS V14.01,2013-09-04 00:02:00,
2013-09-03 19:07:00,77.6,64.0,29.98,South,175,2.0,3.0,63,0.00,,SCT250,0.00,VWS V14.01,2013-09-04 00:07:00,
2013-09-03 19:12:00,77.2,64.1,29.98,South,176,3.0,3.0,64,0.00,,SCT250,0.00,VWS V14.01,2013-09-04 00:12:00,
2013-09-03 19:17:00,76.8,64.2,29.98,South,178,2.0,3.0,65,0.00,,SCT250,0.00,VWS V14.01,2013-09-04 00:17:00,
2013-09-03 19:22:00,76.6,63.1,29.98,South,177,3.0,4.0,63,0.00,,SCT250,0.00,VWS V14.01,2013-09-04 00:22:00,
2013-09-03 19:27:00,76.3,62.3,29.98,South,177,3.0,3.0,62,0.00,,SCT250,0.00,VWS V14.01,2013-09-04 00:27:00,
2013-09-03 19:32:00,76.0,61.6,29.98,South,185,2.0,3.0,61,0.00,,SCT250,0.00,VWS V14.01,2013-09-04 00:32:00,
2013-09-03 19:37:00,75.8,61.4,29.98,South,185,3.0,3.0,61,0.00,,SCT250,0.00,VWS V14.01,2013-09-04 00:37:00,
2013-09-03 19:42:00,75.6,61.7,29.98,South,185,2.0,2.0,62,0.00,,SCT250,0.00,VWS V14.01,2013-09-04 00:42:00,
2013-09-03 19:47:00,75.3,61.8,29.98,South,185,2.0,2.0,63,0.00,,SCT250,0.00,VWS V14.01,2013-09-04 00:47:00,
2013-09-03 19:52:00,75.1,62.1,29.98,South,185,0.0,0.0,64,0.00,,SCT250,0.00,VWS V14.01,2013-09-04 00:52:00,
2013-09-03 19:57:00,74.8,61.8,29.99,South,185,0.0,0.0,64,0.00,,SCT250,0.00,VWS V14.01,2013-09-04 00:57:00,
2013-09-03 20:02:00,74.6,61.6,29.98,South,185,0.0,1.0,64,0.00,,SCT250,0.00,VWS V14.01,2013-09-04 01:02:00,
2013-09-03 20:07:00,74.5,61.5,29.98,South,185,1.0,1.0,64,0.00,,SCT250,0.00,VWS V14.01,2013-09-04 01:07:00,
2013-09-03 20:12:00,74.3,61.3,29.98,South,185,2.0,3.0,64,0.00,,SCT250,0.00,VWS V14.01,2013-09-04 01:12:00,
2013-09-03 20:17:00,74.1,61.2,29.98,South,183,1.0,3.0,64,0.00,,SCT250,0.00,VWS V14.01,2013-09-04 01:17:00,
2013-09-03 20:22:00,74.0,61.1,29.98,South,185,3.0,3.0,64,0.00,,SCT250,0.00,VWS V14.01,2013-09-04 01:22:00,
2013-09-03 20:27:00,73.9,61.4,29.98,South,185,1.0,2.0,65,0.00,,SCT250,0.00,VWS V14.01,2013-09-04 01:27:00,
2013-09-03 20:32:00,73.7,61.2,29.98,South,185,0.0,1.0,65,0.00,,SCT250,0.00,VWS V14.01,2013-09-04 01:32:00,
2013-09-03 20:37:00,73.5,61.9,29.98,South,185,0.0,0.0,67,0.00,,SCT250,0.00,VWS V14.01,2013-09-04 01:37:00,
2013-09-03 20:42:00,73.0,61.4,29.99,South,185,0.0,0.0,67,0.00,,BKN250,0.00,VWS V14.01,2013-09-04 01:42:00,
2013-09-03 20:47:00,72.6,61.0,29.99,South,185,0.0,0.0,67,0.00,,BKN250,0.00,VWS V14.01,2013-09-04 01:47:00,
2013-09-03 20:53:00,72.5,61.3,29.99,South,185,0.0,0.0,68,0.00,,BKN250,0.00,VWS V14.01,2013-09-04 01:53:00,
2013-09-03 20:58:00,72.4,61.2,29.99,South,185,1.0,1.0,68,0.00,,BKN250,0.00,VWS V14.01,2013-09-04 01:58:00,
2013-09-03 21:03:00,72.4,61.2,29.99,South,185,1.0,2.0,68,0.00,,BKN250,0.00,VWS V14.01,2013-09-04 02:03:00,
2013-09-03 21:08:00,72.2,61.5,29.99,South,186,0.0,2.0,69,0.00,,BKN250,0.00,VWS V14.01,2013-09-04 02:08:00,
2013-09-03 21:13:00,72.1,61.4,29.99,South,187,2.0,2.0,69,0.00,,BKN250,0.00,VWS V14.01,2013-09-04 02:13:00,
2013-09-03 21:18:00,72.2,61.5,29.99,South,187,1.0,1.0,69,0.00,,BKN250,0.00,VWS V14.01,2013-09-04 02:18:00,
2013-09-03 21:23:00,72.2,61.9,29.99,South,187,0.0,0.0,70,0.00,,BKN250,0.00,VWS V14.01,2013-09-04 02:23:00,
2013-09-03 21:28:00,72.1,61.8,29.99,South,187,0.0,1.0,70,0.00,,BKN250,0.00,VWS V14.01,2013-09-04 02:28:00,
2013-09-03 21:33:00,71.9,61.6,29.99,South,187,0.0,0.0,70,0.00,,BKN250,0.00,VWS V14.01,2013-09-04 02:33:00,
2013-09-03 21:38:00,71.7,61.8,29.99,South,187,0.0,0.0,71,0.00,,BKN250,0.00,VWS V14.01,2013-09-04 02:38:00,
2013-09-03 21:43:00,71.4,61.5,29.99,South,187,0.0,0.0,71,0.00,,SCT250,0.00,VWS V14.01,2013-09-04 02:43:00,
2013-09-03 21:48:00,71.2,61.3,29.98,South,187,0.0,1.0,71,0.00,,SCT250,0.00,VWS V14.01,2013-09-04 02:48:00,
2013-09-03 21:53:00,71.1,61.6,29.98,South,187,0.0,1.0,72,0.00,,SCT250,0.00,VWS V14.01,2013-09-04 02:53:00,
2013-09-03 21:58:00,70.9,61.0,29.98,South,187,1.0,2.0,71,0.00,,SCT250,0.00,VWS V14.01,2013-09-04 02:58:00,
2013-09-03 22:03:00,70.8,60.9,29.98,South,187,0.0,1.0,71,0.00,,SCT250,0.00,VWS V14.01,2013-09-04 03:03:00,
2013-09-03 22:08:00,70.7,61.2,29.99,South,187,0.0,0.0,72,0.00,,SCT250,0.00,VWS V14.01,2013-09-04 03:08:00,
2013-09-03 22:13:00,70.4,61.0,29.99,South,187,0.0,0.0,72,0.00,,SCT250,0.00,VWS V14.01,2013-09-04 03:13:00,
2013-09-03 22:18:00,70.1,60.7,29.99,South,187,0.0,0.0,72,0.00,,SCT250,0.00,VWS V14.01,2013-09-04 03:18:00,
2013-09-03 22:23:00,70.1,61.0,29.99,South,187,0.0,1.0,73,0.00,,SCT250,0.00,VWS V14.01,2013-09-04 03:23:00,
2013-09-03 22:28:00,70.1,61.0,29.99,South,187,1.0,2.0,73,0.00,,SCT250,0.00,VWS V14.01,2013-09-04 03:28:00,
2013-09-03 22:33:00,70.1,61.0,29.99,South,187,1.0,1.0,73,0.00,,SCT250,0.00,VWS V14.01,2013-09-04 03:33:00,
2013-09-03 22:38:00,70.1,61.0,29.99,South,187,0.0,1.0,73,0.00,,SCT250,0.00,VWS V14.01,2013-09-04 03:38:00,
2013-09-03 22:43:00,70.1,61.0,29.99,South,187,0.0,0.0,73,0.00,,SCT150,0.00,VWS V14.01,2013-09-04 03:43:00,
2013-09-03 22:48:00,69.9,60.9,29.99,South,187,0.0,0.0,73,0.00,,SCT150,0.00,VWS V14.01,2013-09-04 03:48:00,
2013-09-03 22:53:00,69.8,60.8,29.99,South,187,0.0,0.0,73,0.00,,SCT150,0.00,VWS V14.01,2013-09-04 03:53:00,
2013-09-03 22:58:00,69.6,61.0,29.99,South,187,0.0,0.0,74,0.00,,SCT150,0.00,VWS V14.01,2013-09-04 03:58:00,
2013-09-03 23:01:00,69.6,61.0,29.99,South,187,0.0,0.0,74,0.00,,SCT150,0.00,VWS V14.01,2013-09-04 04:01:00,
2013-09-03 23:02:00,69.6,61.0,29.99,South,187,0.0,1.0,74,0.00,,SCT150,0.00,VWS V14.01,2013-09-04 04:02:00,
2013-09-03 23:07:00,69.9,60.9,29.99,South,187,2.0,2.0,73,0.00,,SCT150,0.00,VWS V14.01,2013-09-04 04:07:00,
2013-09-03 23:12:00,70.1,61.0,29.99,South,187,0.0,0.0,73,0.00,,SCT150,0.00,VWS V14.01,2013-09-04 04:12:00,
2013-09-03 23:17:00,70.1,61.0,29.99,South,187,0.0,0.0,73,0.00,,SCT150,0.00,VWS V14.01,2013-09-04 04:17:00,
2013-09-03 23:22:00,70.0,61.0,30.00,South,187,1.0,1.0,73,0.00,,SCT150,0.00,VWS V14.01,2013-09-04 04:22:00,
2013-09-03 23:27:00,70.1,61.0,30.00,South,187,0.0,1.0,73,0.00,,SCT150,0.00,VWS V14.01,2013-09-04 04:27:00,
2013-09-03 23:32:00,70.1,61.0,30.00,South,187,1.0,1.0,73,0.00,,SCT150,0.00,VWS V14.01,2013-09-04 04:32:00,
2013-09-03 23:37:00,70.0,61.0,30.00,South,187,2.0,2.0,73,0.00,,SCT150,0.00,VWS V14.01,2013-09-04 04:37:00,
2013-09-03 23:42:00,69.9,61.2,29.99,South,187,0.0,1.0,74,0.00,,SCT150,0.00,VWS V14.01,2013-09-04 04:42:00,
2013-09-03 23:47:00,69.7,61.0,29.99,South,187,0.0,0.0,74,0.00,,SCT150,0.00,VWS V14.01,2013-09-04 04:47:00,
2013-09-03 23:52:00,69.7,61.0,29.99,South,187,0.0,1.0,74,0.00,,SCT150,0.00,VWS V14.01,2013-09-04 04:52:00,
2013-09-03 23:57:00,69.7,61.4,29.99,South,187,0.0,1.0,75,0.00,,SCT150,0.00,VWS V14.01,2013-09-04 04:57:00,